Please be sure to check the latest weather conditions by clicking the link and viewing our local weather information!

Check Weather

Welcome to Lakeway Airpark (3R9)

FromTheAir

We’re a community airpark nestled within the town of Lakeway, Texas (17 miles northwest of downtown Austin).

Lakeway Airpark, Inc. was formed by Lakeway residents and interested parties to own and manage Lakeway Airpark (3R9).

The Airpark is a privately owned not for profit public use airport for residents and guests of Lakeway. No public funds are used and the airport is supported by fees and fuel sales at the airport.

Lakeway Airpark is an unmanned facility open for use from Sunrise to Sunset seven days a week. Takeoffs and landings are not permitted at night, between Sunset and Sunrise, by City Ordinance.

Quick Weather Info

Available data for KAUS from the past 2 hours

METAR
KAUS 221553Z 03009KT 10SM FEW200 BKN300 29/20 A3013 RMK AO2 SLP194 T02940200
KAUS 221453Z 01007KT 10SM FEW065 SCT200 BKN300 27/20 A3013 RMK AO2 SLP195 T02720200 51011
TAF
KAUS 221127Z 2212/2318 VRB03KT P6SM SCT250 FM221500 03010KT P6SM SCT250